Year,Month,Day,Hour,Minute,Value (Times are PST for temperature in C)
2009,01,20,00,00,1.60
2009,01,20,00,01,1.60
2009,01,20,00,02,1.60
2009,01,20,00,03,1.60
2009,01,20,00,04,1.60
2009,01,20,00,05,1.60
2009,01,20,00,06,1.60
2009,01,20,00,07,1.50
2009,01,20,00,08,1.50
2009,01,20,00,09,1.50
2009,01,20,00,10,1.50
2009,01,20,00,11,1.50
2009,01,20,00,12,1.50
2009,01,20,00,13,1.50
2009,01,20,00,14,1.50
2009,01,20,00,15,1.50
2009,01,20,00,16,1.50
2009,01,20,02,02,2.00
2009,01,20,02,03,2.00
2009,01,20,02,04,2.00
2009,01,20,02,05,2.00
2009,01,20,02,06,2.00
2009,01,20,02,07,2.00
2009,01,20,02,08,2.00
2009,01,20,02,09,2.00
2009,01,20,02,10,1.90
2009,01,20,02,11,1.90
2009,01,20,02,12,1.90
2009,01,20,02,13,1.90
2009,01,20,02,14,1.90
2009,01,20,02,15,1.90
2009,01,20,02,16,1.80
2009,01,20,02,17,1.80
2009,01,20,02,18,1.80
2009,01,20,02,19,1.80
2009,01,20,02,20,1.70
2009,01,20,02,21,1.70
2009,01,20,02,22,1.60
2009,01,20,02,23,1.60
2009,01,20,02,24,1.50
2009,01,20,02,25,1.40
2009,01,20,02,26,1.40
2009,01,20,02,27,1.40
2009,01,20,02,28,1.40
2009,01,20,02,29,1.30
2009,01,20,02,30,1.30
2009,01,20,02,31,1.30
2009,01,20,02,32,1.30
2009,01,20,02,33,1.20
2009,01,20,02,34,1.20
2009,01,20,02,35,1.20
2009,01,20,02,36,1.20
2009,01,20,02,37,1.20
2009,01,20,02,38,1.20
2009,01,20,02,39,1.20
2009,01,20,02,40,1.20
2009,01,20,02,41,1.20
2009,01,20,02,42,1.20
2009,01,20,02,43,1.20
2009,01,20,02,44,1.30
2009,01,20,02,45,1.30
2009,01,20,02,46,1.30
2009,01,20,02,47,1.30
2009,01,20,02,48,1.30
2009,01,20,02,49,1.30
2009,01,20,02,50,1.30
2009,01,20,02,51,1.40
2009,01,20,02,52,1.40
2009,01,20,02,53,1.40
2009,01,20,02,54,1.50
2009,01,20,02,55,1.50
2009,01,20,02,56,1.50
2009,01,20,02,57,1.60
2009,01,20,02,58,1.60
2009,01,20,02,59,1.60
2009,01,20,03,00,1.70
2009,01,20,03,01,1.70
2009,01,20,03,02,1.70
2009,01,20,03,03,1.70
2009,01,20,03,04,1.60
2009,01,20,03,05,1.60
2009,01,20,03,06,1.50
2009,01,20,03,07,1.40
2009,01,20,03,08,1.30
2009,01,20,03,09,1.30
2009,01,20,03,10,1.20
2009,01,20,03,11,1.20
2009,01,20,03,12,1.20
2009,01,20,03,13,1.10
2009,01,20,03,14,1.10
2009,01,20,03,15,1.10
2009,01,20,03,16,1.10
2009,01,20,03,17,1.10
2009,01,20,03,18,1.10
2009,01,20,03,19,1.10
2009,01,20,03,20,1.10
2009,01,20,03,21,1.00
2009,01,20,03,22,1.00
2009,01,20,03,23,1.00
2009,01,20,03,24,1.00
2009,01,20,03,25,1.00
2009,01,20,03,26,1.00
2009,01,20,03,27,0.90
2009,01,20,03,28,0.90
2009,01,20,03,29,0.90
2009,01,20,03,30,0.90
2009,01,20,03,31,0.90
2009,01,20,03,32,0.90
2009,01,20,03,33,0.90
2009,01,20,03,34,1.00
2009,01,20,03,35,1.00
2009,01,20,03,36,1.00
2009,01,20,03,37,1.00
2009,01,20,03,38,1.00
2009,01,20,03,39,1.00
2009,01,20,03,40,1.00
2009,01,20,03,41,1.00
2009,01,20,03,42,1.00
2009,01,20,03,43,1.00
2009,01,20,03,44,1.00
2009,01,20,03,45,1.00
2009,01,20,03,46,0.90
2009,01,20,03,47,0.90
2009,01,20,03,48,0.80
2009,01,20,03,49,0.80
2009,01,20,03,50,0.80
2009,01,20,03,51,0.80
2009,01,20,03,52,0.80
2009,01,20,03,53,0.80
2009,01,20,03,54,0.80
2009,01,20,03,55,0.80
2009,01,20,03,56,0.80
2009,01,20,03,57,0.90
2009,01,20,03,58,0.90
2009,01,20,03,59,0.90
2009,01,20,04,00,1.00
2009,01,20,04,01,1.00
2009,01,20,04,02,1.00
2009,01,20,04,03,1.00
2009,01,20,04,04,1.10
2009,01,20,04,05,1.10
2009,01,20,04,06,1.10
2009,01,20,04,07,1.00
2009,01,20,04,08,1.00
2009,01,20,04,09,1.00
2009,01,20,04,10,1.00
2009,01,20,04,11,0.90
2009,01,20,04,12,0.90
2009,01,20,04,13,0.80
2009,01,20,04,14,0.90
2009,01,20,04,15,0.90
2009,01,20,04,16,0.90
2009,01,20,04,17,1.00
2009,01,20,04,18,1.00
2009,01,20,04,19,1.10
2009,01,20,04,20,1.10
2009,01,20,04,21,1.10
2009,01,20,04,22,1.10
2009,01,20,04,23,1.10
2009,01,20,04,24,1.10
2009,01,20,04,25,1.10
2009,01,20,04,26,1.10
2009,01,20,04,27,1.10
2009,01,20,04,28,1.10
2009,01,20,04,29,1.10
2009,01,20,04,30,1.10
2009,01,20,04,31,1.10
2009,01,20,04,32,1.00
2009,01,20,04,33,1.00
2009,01,20,04,34,1.00
2009,01,20,04,35,1.00
2009,01,20,04,36,1.00
2009,01,20,04,37,0.90
2009,01,20,04,38,0.90
2009,01,20,04,39,0.90
2009,01,20,04,40,0.90
2009,01,20,04,41,0.90
2009,01,20,04,42,0.90
2009,01,20,04,43,0.90
2009,01,20,04,44,0.80
2009,01,20,04,45,0.80
2009,01,20,04,46,0.80
2009,01,20,04,47,0.80
2009,01,20,04,48,0.80
2009,01,20,04,49,0.80
2009,01,20,04,50,0.80
2009,01,20,04,51,0.80
2009,01,20,04,52,0.80
2009,01,20,04,53,0.80
2009,01,20,04,54,0.80
2009,01,20,04,55,0.80
2009,01,20,04,56,0.80
2009,01,20,04,57,0.90
2009,01,20,04,58,0.90
2009,01,20,04,59,0.90
2009,01,20,05,00,0.90
2009,01,20,05,01,0.90
2009,01,20,05,02,0.90
2009,01,20,05,03,0.90
2009,01,20,05,04,0.90
2009,01,20,05,05,0.90
2009,01,20,05,06,0.90
2009,01,20,05,07,0.80
2009,01,20,05,08,0.80
2009,01,20,05,09,0.80
2009,01,20,05,10,0.80
2009,01,20,05,11,0.70
2009,01,20,05,12,0.70
2009,01,20,05,13,0.60
2009,01,20,05,14,0.60
2009,01,20,05,15,0.60
2009,01,20,05,16,0.50
2009,01,20,05,17,0.50
2009,01,20,05,18,0.50
2009,01,20,05,19,0.50
2009,01,20,05,20,0.50
2009,01,20,05,21,0.50
2009,01,20,05,22,0.50
2009,01,20,05,23,0.50
2009,01,20,05,24,0.50
2009,01,20,05,25,0.50
2009,01,20,05,26,0.50
2009,01,20,05,27,0.50
2009,01,20,05,28,0.50
2009,01,20,05,29,0.50
2009,01,20,05,30,0.50
2009,01,20,05,31,0.50
2009,01,20,05,32,0.50
2009,01,20,05,33,0.60
2009,01,20,05,34,0.60
2009,01,20,05,35,0.60
2009,01,20,05,36,0.50
2009,01,20,05,37,0.50
2009,01,20,05,38,0.50
2009,01,20,05,39,0.50
2009,01,20,05,40,0.50
2009,01,20,05,41,0.60
2009,01,20,05,42,0.60
2009,01,20,05,43,0.60
2009,01,20,05,44,0.60
2009,01,20,05,45,0.50
2009,01,20,05,46,0.50
2009,01,20,05,47,0.40
2009,01,20,05,48,0.40
2009,01,20,05,49,0.30
2009,01,20,05,50,0.20
2009,01,20,05,51,0.20
2009,01,20,05,52,0.20
2009,01,20,05,53,0.30
2009,01,20,05,54,0.30
2009,01,20,05,55,0.30
2009,01,20,05,56,0.40
2009,01,20,05,57,0.40
2009,01,20,05,58,0.40
2009,01,20,05,59,0.40
2009,01,20,06,00,0.40
2009,01,20,06,01,0.40
2009,01,20,06,02,0.40
2009,01,20,06,03,0.40
2009,01,20,06,04,0.40
2009,01,20,06,05,0.40
2009,01,20,06,06,0.40
2009,01,20,06,07,0.40
2009,01,20,06,08,0.40
2009,01,20,06,09,0.50
2009,01,20,06,10,0.50
2009,01,20,06,11,0.50
2009,01,20,06,12,0.50
2009,01,20,06,13,0.50
2009,01,20,06,14,0.50
2009,01,20,06,15,0.50
2009,01,20,06,16,0.50
2009,01,20,06,17,0.50
2009,01,20,06,18,0.50
2009,01,20,06,19,0.50
2009,01,20,06,20,0.60
2009,01,20,06,21,0.60
2009,01,20,06,22,0.70
2009,01,20,06,23,0.70
2009,01,20,06,24,0.80
2009,01,20,06,25,0.80
2009,01,20,06,26,0.80
2009,01,20,06,27,0.70
2009,01,20,06,28,0.70
2009,01,20,06,29,0.70
2009,01,20,06,30,0.70
2009,01,20,06,31,0.60
2009,01,20,06,32,0.60
2009,01,20,06,33,0.60
2009,01,20,06,34,0.60
2009,01,20,06,35,0.60
2009,01,20,06,36,0.60
2009,01,20,06,37,0.60
2009,01,20,06,38,0.60
2009,01,20,06,39,0.60
2009,01,20,06,40,0.60
2009,01,20,06,41,0.50
2009,01,20,06,42,0.50
2009,01,20,06,43,0.50
2009,01,20,06,44,0.50
2009,01,20,06,45,0.50
2009,01,20,06,46,0.50
2009,01,20,06,47,0.50
2009,01,20,06,48,0.50
2009,01,20,06,49,0.50
2009,01,20,06,50,0.50
2009,01,20,06,51,0.40
2009,01,20,06,52,0.40
2009,01,20,06,53,0.40
2009,01,20,06,54,0.30
2009,01,20,06,55,0.30
2009,01,20,06,56,0.30
2009,01,20,06,57,0.20
2009,01,20,06,58,0.20
2009,01,20,06,59,0.20
2009,01,20,07,00,0.20
2009,01,20,07,01,0.20
2009,01,20,07,02,0.20
2009,01,20,07,03,0.20
2009,01,20,07,04,0.20
2009,01,20,07,05,0.20
2009,01,20,07,06,0.10
2009,01,20,07,07,0.10
2009,01,20,07,08,0.10
2009,01,20,07,09,0.10
2009,01,20,07,10,0.20
2009,01,20,07,11,0.20
2009,01,20,07,12,0.20
2009,01,20,07,13,0.20
2009,01,20,07,14,0.30
2009,01,20,07,15,0.30
2009,01,20,07,16,0.40
2009,01,20,07,17,0.40
2009,01,20,07,18,0.40
2009,01,20,07,19,0.40
2009,01,20,07,20,0.30
2009,01,20,07,21,0.30
2009,01,20,07,22,0.30
2009,01,20,07,23,0.20
2009,01,20,07,24,0.20
2009,01,20,07,25,0.20
2009,01,20,07,26,0.20
2009,01,20,07,27,0.20
2009,01,20,07,28,0.20
2009,01,20,07,29,0.20
2009,01,20,07,30,0.20
2009,01,20,07,31,0.20
2009,01,20,07,32,0.20
2009,01,20,07,33,0.20
2009,01,20,07,34,0.10
2009,01,20,07,35,0.10
2009,01,20,07,36,0.10
2009,01,20,07,37,0.00
2009,01,20,07,38,-0.10
2009,01,20,07,39,-0.10
2009,01,20,07,40,-0.10
2009,01,20,07,41,-0.20
2009,01,20,07,42,-0.20
2009,01,20,07,43,-0.20
2009,01,20,07,44,-0.20
2009,01,20,07,45,-0.10
2009,01,20,07,46,-0.10
2009,01,20,07,47,-0.10
2009,01,20,07,48,-0.10
2009,01,20,07,49,-0.10
2009,01,20,07,50,-0.10
2009,01,20,07,51,-0.10
2009,01,20,07,52,-0.10
2009,01,20,07,53,-0.10
2009,01,20,07,54,-0.10
2009,01,20,07,55,-0.10
2009,01,20,07,56,0.10
2009,01,20,07,57,0.10
2009,01,20,07,58,0.20
2009,01,20,07,59,0.20
2009,01,20,08,00,0.30
2009,01,20,08,01,0.30
2009,01,20,08,02,0.40
2009,01,20,08,03,0.40
2009,01,20,08,04,0.50
2009,01,20,08,05,0.50
2009,01,20,08,06,0.50
2009,01,20,08,07,0.50
2009,01,20,08,08,0.50
2009,01,20,08,09,0.60
2009,01,20,08,10,0.60
2009,01,20,08,11,0.60
2009,01,20,08,12,0.60
2009,01,20,08,13,0.60
2009,01,20,08,14,0.60
2009,01,20,08,15,0.60
2009,01,20,08,16,0.60
2009,01,20,08,17,0.60
2009,01,20,08,18,0.70
2009,01,20,08,19,0.80
2009,01,20,08,20,0.80
2009,01,20,08,21,0.90
2009,01,20,08,22,1.00
2009,01,20,08,23,1.10
2009,01,20,08,24,1.20
2009,01,20,08,25,1.30
2009,01,20,08,26,1.30
2009,01,20,08,27,1.40
2009,01,20,08,28,1.40
2009,01,20,08,29,1.40
2009,01,20,08,30,1.40
2009,01,20,08,31,1.40
2009,01,20,08,32,1.40
2009,01,20,08,33,1.30
2009,01,20,08,34,1.30
2009,01,20,08,35,1.40
2009,01,20,08,36,1.40
2009,01,20,08,37,1.40
2009,01,20,08,38,1.40
2009,01,20,08,39,1.40
2009,01,20,08,40,1.40
2009,01,20,08,41,1.40
2009,01,20,08,42,1.40
2009,01,20,08,43,1.50
2009,01,20,08,44,1.50
2009,01,20,08,45,1.50
2009,01,20,08,46,1.60
2009,01,20,08,47,1.60
2009,01,20,08,48,1.60
2009,01,20,08,49,1.70
2009,01,20,08,50,1.70
2009,01,20,08,51,1.70
2009,01,20,08,52,1.80
2009,01,20,08,53,1.80
2009,01,20,08,54,1.80
2009,01,20,08,55,1.80
2009,01,20,08,56,1.80
2009,01,20,08,57,1.80
2009,01,20,08,58,1.80
2009,01,20,08,59,1.90
2009,01,20,09,00,1.90
2009,01,20,09,01,2.00
2009,01,20,09,02,2.00
2009,01,20,09,03,2.00
2009,01,20,09,04,2.10
2009,01,20,09,05,2.20
2009,01,20,09,06,2.20
2009,01,20,09,07,2.20
2009,01,20,09,08,2.30
2009,01,20,09,09,2.40
2009,01,20,09,10,2.40
2009,01,20,09,11,2.50
2009,01,20,09,12,2.60
2009,01,20,09,13,2.70
2009,01,20,09,14,2.70
2009,01,20,09,15,2.80
2009,01,20,09,16,2.90
2009,01,20,09,17,2.90
2009,01,20,09,18,3.00
2009,01,20,09,19,3.10
2009,01,20,09,20,3.20
2009,01,20,09,21,3.30
2009,01,20,09,22,3.30
2009,01,20,09,23,3.40
2009,01,20,09,24,3.50
2009,01,20,09,25,3.50
2009,01,20,09,26,3.60
2009,01,20,09,27,3.60
2009,01,20,09,28,3.60
2009,01,20,09,29,3.70
2009,01,20,09,30,3.80
2009,01,20,09,31,3.80
2009,01,20,09,32,4.00
2009,01,20,09,33,4.10
2009,01,20,09,34,4.30
2009,01,20,09,35,4.50
2009,01,20,09,36,4.60
2009,01,20,09,37,4.70
2009,01,20,09,38,4.80
2009,01,20,09,39,4.80
2009,01,20,09,40,4.90
2009,01,20,09,41,4.90
2009,01,20,09,42,4.90
2009,01,20,09,43,5.00
2009,01,20,09,44,5.10
2009,01,20,09,45,5.10
2009,01,20,09,46,5.10
2009,01,20,09,47,5.10
2009,01,20,09,48,5.10
2009,01,20,09,49,5.10
2009,01,20,09,50,5.10
2009,01,20,09,51,5.10
2009,01,20,09,52,5.10
2009,01,20,09,53,5.10
2009,01,20,09,54,5.10
2009,01,20,09,55,5.10
2009,01,20,09,56,5.10
2009,01,20,09,57,5.10
2009,01,20,09,58,5.10
2009,01,20,09,59,5.20
2009,01,20,10,00,5.20
2009,01,20,10,01,5.20
2009,01,20,10,02,5.20
2009,01,20,10,03,5.20
2009,01,20,10,04,5.10
2009,01,20,10,05,5.10
2009,01,20,10,06,5.10
2009,01,20,10,07,5.10
2009,01,20,10,08,5.10
2009,01,20,10,09,5.10
2009,01,20,10,10,5.10
2009,01,20,10,11,5.10
2009,01,20,10,12,5.10
2009,01,20,10,13,5.10
2009,01,20,10,14,5.10
2009,01,20,10,15,5.10
2009,01,20,10,16,5.10
2009,01,20,10,17,5.10
2009,01,20,10,18,5.10
2009,01,20,10,19,5.20
2009,01,20,10,20,5.30
2009,01,20,10,21,5.30
2009,01,20,10,22,5.40
2009,01,20,10,23,5.50
2009,01,20,10,24,5.50
2009,01,20,10,25,5.60
2009,01,20,10,26,5.60
2009,01,20,10,27,5.60
2009,01,20,10,28,5.60
2009,01,20,10,29,5.60
2009,01,20,10,30,5.60
2009,01,20,10,31,5.60
2009,01,20,10,32,5.70
2009,01,20,10,33,5.70
2009,01,20,10,34,5.70
2009,01,20,10,35,5.70
2009,01,20,10,36,5.70
2009,01,20,10,37,5.70
2009,01,20,10,38,5.80
2009,01,20,10,39,5.80
2009,01,20,10,40,5.90
2009,01,20,10,41,6.00
2009,01,20,10,42,6.00
2009,01,20,10,43,6.10
2009,01,20,10,44,6.20
2009,01,20,10,45,6.20
2009,01,20,10,46,6.30
2009,01,20,10,47,6.30
2009,01,20,10,48,6.40
2009,01,20,10,49,6.50
2009,01,20,10,50,6.60
2009,01,20,10,51,6.60
2009,01,20,10,52,6.60
2009,01,20,10,53,6.50
2009,01,20,10,54,6.40
2009,01,20,10,55,6.40
2009,01,20,10,56,6.40
2009,01,20,10,57,6.40
2009,01,20,10,58,6.50
2009,01,20,10,59,6.60
2009,01,20,11,00,6.60
2009,01,20,11,01,6.60
2009,01,20,11,02,6.60
2009,01,20,11,03,6.60
2009,01,20,11,04,6.60
2009,01,20,11,05,6.60
2009,01,20,11,06,6.50
2009,01,20,11,07,6.40
2009,01,20,11,08,6.40
2009,01,20,11,09,6.30
2009,01,20,11,10,6.30
2009,01,20,11,11,6.40
2009,01,20,11,12,6.40
2009,01,20,11,13,6.40
2009,01,20,11,14,6.40
2009,01,20,11,15,6.50
2009,01,20,11,16,6.60
2009,01,20,11,17,6.60
2009,01,20,11,18,6.60
2009,01,20,11,19,6.70
2009,01,20,11,20,6.70
2009,01,20,11,21,6.80
2009,01,20,11,22,6.80
2009,01,20,11,23,6.80
2009,01,20,11,24,6.80
2009,01,20,11,25,6.70
2009,01,20,11,26,6.70
2009,01,20,11,27,6.70
2009,01,20,11,28,6.80
2009,01,20,11,29,6.80
2009,01,20,11,30,6.80
2009,01,20,11,31,6.90
2009,01,20,11,32,7.00
2009,01,20,11,33,7.10
2009,01,20,11,34,7.10
2009,01,20,11,35,7.20
2009,01,20,11,36,7.20
2009,01,20,11,37,7.20
2009,01,20,11,38,7.10
2009,01,20,11,39,7.10
2009,01,20,11,40,7.10
2009,01,20,11,41,7.00
2009,01,20,11,42,7.00
2009,01,20,11,43,6.90
2009,01,20,11,44,6.90
2009,01,20,11,45,6.90
2009,01,20,11,46,6.90
2009,01,20,11,47,6.90
2009,01,20,11,48,7.00
2009,01,20,11,49,7.00
2009,01,20,11,50,7.00
2009,01,20,11,51,7.10
2009,01,20,11,52,7.20
2009,01,20,11,53,7.30
2009,01,20,11,54,7.30
2009,01,20,11,55,7.40
2009,01,20,11,56,7.40
2009,01,20,11,57,7.40
2009,01,20,11,58,7.40
2009,01,20,11,59,7.30
2009,01,20,12,00,7.20
2009,01,20,12,01,7.10
2009,01,20,12,02,7.10
2009,01,20,12,03,7.10
2009,01,20,12,04,7.00
2009,01,20,12,05,7.10
2009,01,20,12,06,7.10
2009,01,20,12,07,7.20
2009,01,20,12,08,7.20
2009,01,20,12,09,7.30
2009,01,20,12,10,7.30
2009,01,20,12,11,7.40
2009,01,20,12,12,7.40
2009,01,20,12,13,7.40
2009,01,20,12,14,7.40
2009,01,20,12,15,7.40
2009,01,20,12,16,7.40
2009,01,20,12,17,7.40
2009,01,20,12,18,7.50
2009,01,20,12,19,7.50
2009,01,20,12,20,7.50
2009,01,20,12,21,7.60
2009,01,20,12,22,7.60
2009,01,20,12,23,7.60
2009,01,20,12,24,7.70
2009,01,20,12,25,7.70
2009,01,20,12,26,7.70
2009,01,20,12,27,7.70
2009,01,20,12,28,7.70
2009,01,20,12,29,7.70
2009,01,20,12,30,7.70
2009,01,20,12,31,7.80
2009,01,20,12,32,7.80
2009,01,20,12,33,7.80
2009,01,20,12,34,7.80
2009,01,20,12,35,7.80
2009,01,20,12,36,7.90
2009,01,20,12,37,7.90
2009,01,20,12,38,7.90
2009,01,20,12,39,7.90
2009,01,20,12,40,7.90
2009,01,20,12,41,8.00
2009,01,20,12,42,8.00
2009,01,20,12,43,7.90
2009,01,20,12,44,7.80
2009,01,20,12,45,7.70
2009,01,20,12,46,7.70
2009,01,20,12,47,7.70
2009,01,20,12,48,7.70
2009,01,20,12,49,7.60
2009,01,20,12,50,7.60
2009,01,20,12,51,7.50
2009,01,20,12,52,7.50
2009,01,20,12,53,7.40
2009,01,20,12,54,7.40
2009,01,20,12,55,7.40
2009,01,20,12,56,7.40
2009,01,20,12,57,7.40
2009,01,20,12,58,7.40
2009,01,20,12,59,7.40
2009,01,20,13,00,7.40
2009,01,20,13,01,7.30
2009,01,20,13,02,7.30
2009,01,20,13,03,7.30
2009,01,20,13,04,7.30
2009,01,20,13,05,7.30
2009,01,20,13,06,7.30
2009,01,20,13,07,7.40
2009,01,20,13,08,7.40
2009,01,20,13,09,7.50
2009,01,20,13,10,7.60
2009,01,20,13,11,7.60
2009,01,20,13,12,7.70
2009,01,20,13,13,7.80
2009,01,20,13,14,7.80
2009,01,20,13,15,7.80
2009,01,20,13,16,7.90
2009,01,20,13,17,7.90
2009,01,20,13,18,7.90
2009,01,20,13,19,7.90
2009,01,20,13,20,8.00
2009,01,20,13,21,8.00
2009,01,20,13,22,8.00
2009,01,20,13,23,8.10
2009,01,20,13,24,8.10
2009,01,20,13,25,8.10
2009,01,20,13,26,8.10
2009,01,20,13,27,8.20
2009,01,20,13,28,8.20
2009,01,20,13,29,8.20
2009,01,20,13,30,8.20
2009,01,20,13,31,8.10
2009,01,20,13,32,8.10
2009,01,20,13,33,8.00
2009,01,20,13,34,8.00
2009,01,20,13,35,8.00
2009,01,20,13,36,8.00
2009,01,20,13,37,7.90
2009,01,20,13,38,7.80
2009,01,20,13,39,7.80
2009,01,20,13,40,7.80
2009,01,20,13,41,7.80
2009,01,20,13,42,7.80
2009,01,20,13,43,7.80
2009,01,20,13,44,7.90
2009,01,20,13,45,7.90
2009,01,20,13,46,7.90
2009,01,20,13,47,7.90
2009,01,20,13,48,7.90
2009,01,20,13,49,7.90
2009,01,20,13,50,7.80
2009,01,20,13,51,7.80
2009,01,20,13,52,7.80
2009,01,20,13,53,7.80
2009,01,20,13,54,7.80
2009,01,20,13,55,7.80
2009,01,20,13,56,7.80
2009,01,20,13,57,7.80
2009,01,20,13,58,7.80
2009,01,20,13,59,7.80
2009,01,20,14,00,7.80
2009,01,20,14,01,7.80
2009,01,20,14,02,7.90
2009,01,20,14,03,7.90
2009,01,20,14,04,7.90
2009,01,20,14,05,8.00
2009,01,20,14,06,8.00
2009,01,20,14,07,8.10
2009,01,20,14,08,8.10
2009,01,20,14,09,8.20
2009,01,20,14,10,8.20
2009,01,20,14,11,8.10
2009,01,20,14,12,8.10
2009,01,20,14,13,8.10
2009,01,20,14,14,8.10
2009,01,20,14,15,8.00
2009,01,20,14,16,8.00
2009,01,20,14,17,7.90
2009,01,20,14,18,7.90
2009,01,20,14,19,7.90
2009,01,20,14,20,7.90
2009,01,20,14,21,7.90
2009,01,20,14,22,8.00
2009,01,20,14,23,8.00
2009,01,20,14,24,7.90
2009,01,20,14,25,7.80
2009,01,20,14,26,7.70
2009,01,20,14,27,7.60
2009,01,20,14,28,7.60
2009,01,20,14,29,7.50
2009,01,20,14,30,7.50
2009,01,20,14,31,7.50
2009,01,20,14,32,7.50
2009,01,20,14,33,7.40
2009,01,20,14,34,7.40
2009,01,20,14,35,7.40
2009,01,20,14,36,7.40
2009,01,20,14,37,7.40
2009,01,20,14,38,7.40
2009,01,20,14,39,7.40
2009,01,20,14,40,7.40
2009,01,20,14,41,7.50
2009,01,20,14,42,7.50
2009,01,20,14,43,7.60
2009,01,20,14,44,7.60
2009,01,20,14,45,7.60
2009,01,20,14,46,7.60
2009,01,20,14,47,7.60
2009,01,20,14,48,7.60
2009,01,20,14,49,7.60
2009,01,20,14,50,7.60
2009,01,20,14,51,7.50
2009,01,20,14,52,7.40
2009,01,20,14,53,7.30
2009,01,20,14,54,7.20
2009,01,20,14,55,7.00
2009,01,20,14,56,6.90
2009,01,20,14,57,6.90
2009,01,20,14,58,6.80
2009,01,20,14,59,6.80
2009,01,20,15,00,6.70
2009,01,20,15,01,6.60
2009,01,20,15,02,6.60
2009,01,20,15,03,6.60
2009,01,20,15,04,6.60
2009,01,20,15,05,6.50
2009,01,20,15,06,6.40
2009,01,20,15,07,6.40
2009,01,20,15,08,6.30
2009,01,20,15,09,6.30
2009,01,20,15,10,6.30
2009,01,20,15,11,6.30
2009,01,20,15,12,6.30
2009,01,20,15,13,6.30
2009,01,20,15,14,6.30
2009,01,20,15,15,6.20
2009,01,20,15,16,6.10
2009,01,20,15,17,6.00
2009,01,20,15,18,5.90
2009,01,20,15,19,5.80
2009,01,20,15,20,5.70
2009,01,20,15,21,5.70
2009,01,20,15,22,5.70
2009,01,20,15,23,5.70
2009,01,20,15,24,5.70
2009,01,20,15,25,5.70
2009,01,20,15,26,5.70
2009,01,20,15,27,5.70
2009,01,20,15,28,5.70
2009,01,20,15,29,5.70
2009,01,20,15,30,5.70
2009,01,20,15,31,5.70
2009,01,20,15,32,5.70
2009,01,20,15,33,5.70
2009,01,20,15,34,5.70
2009,01,20,15,35,5.80
2009,01,20,15,36,5.80
2009,01,20,15,37,5.80
2009,01,20,15,38,5.80
2009,01,20,15,39,5.80
2009,01,20,15,40,5.80
2009,01,20,15,41,5.70
2009,01,20,15,42,5.80
2009,01,20,15,43,5.80
2009,01,20,15,44,5.90
2009,01,20,15,45,5.90
2009,01,20,15,46,6.00
2009,01,20,15,47,6.00
2009,01,20,15,48,6.10
2009,01,20,15,49,6.20
2009,01,20,15,50,6.20
2009,01,20,15,51,6.20
2009,01,20,15,52,6.20
2009,01,20,15,53,6.10
2009,01,20,15,54,6.10
2009,01,20,15,55,6.10
2009,01,20,15,56,6.00
2009,01,20,15,57,6.00
2009,01,20,15,58,6.00
2009,01,20,15,59,5.90
2009,01,20,16,00,5.90
2009,01,20,16,01,5.90
2009,01,20,16,02,5.80
2009,01,20,16,03,5.80
2009,01,20,16,04,5.70
2009,01,20,16,05,5.70
2009,01,20,16,06,5.70
2009,01,20,16,07,5.70
2009,01,20,16,08,5.60
2009,01,20,16,09,5.50
2009,01,20,16,10,5.50
2009,01,20,16,11,5.50
2009,01,20,16,12,5.40
2009,01,20,16,13,5.30
2009,01,20,16,14,5.30
2009,01,20,16,15,5.30
2009,01,20,16,16,5.30
2009,01,20,16,17,5.20
2009,01,20,16,18,5.20
2009,01,20,16,19,5.20
2009,01,20,16,20,5.20
2009,01,20,16,21,5.20
2009,01,20,16,22,5.10
2009,01,20,16,23,5.10
2009,01,20,16,24,5.10
2009,01,20,16,25,5.10
2009,01,20,16,26,5.10
2009,01,20,16,27,5.10
2009,01,20,16,28,5.00
2009,01,20,16,29,4.90
2009,01,20,16,30,4.90
2009,01,20,16,31,4.90
2009,01,20,16,32,4.90
2009,01,20,16,33,4.90
2009,01,20,16,34,4.80
2009,01,20,16,35,4.80
2009,01,20,16,36,4.80
2009,01,20,16,37,4.70
2009,01,20,16,38,4.70
2009,01,20,16,39,4.70
2009,01,20,16,40,4.70
2009,01,20,16,41,4.70
2009,01,20,16,42,4.60
2009,01,20,16,43,4.60
2009,01,20,16,44,4.60
2009,01,20,16,45,4.60
2009,01,20,16,46,4.60
2009,01,20,16,47,4.60
2009,01,20,16,48,4.50
2009,01,20,16,49,4.50
2009,01,20,16,50,4.50
2009,01,20,16,51,4.40
2009,01,20,16,52,4.40
2009,01,20,16,53,4.40
2009,01,20,16,54,4.30
2009,01,20,16,55,4.30
2009,01,20,16,56,4.30
2009,01,20,16,57,4.20
2009,01,20,16,58,4.20
2009,01,20,16,59,4.20
2009,01,20,17,00,4.20
2009,01,20,17,01,4.20
2009,01,20,17,02,4.10
2009,01,20,17,03,4.10
2009,01,20,17,04,4.00
2009,01,20,17,05,4.00
2009,01,20,17,06,4.00
2009,01,20,17,07,3.90
2009,01,20,17,08,3.90
2009,01,20,17,09,3.80
2009,01,20,17,10,3.80
2009,01,20,17,11,3.80
2009,01,20,17,12,3.80
2009,01,20,17,13,3.80
2009,01,20,17,14,3.80
2009,01,20,17,15,3.70
2009,01,20,17,16,3.70
2009,01,20,17,17,3.70
2009,01,20,17,18,3.60
2009,01,20,17,19,3.60
2009,01,20,17,20,3.50
2009,01,20,17,21,3.50
2009,01,20,17,22,3.50
2009,01,20,17,23,3.40
2009,01,20,17,24,3.40
2009,01,20,17,25,3.30
2009,01,20,17,26,3.30
2009,01,20,17,27,3.30
2009,01,20,17,28,3.30
2009,01,20,17,29,3.30
2009,01,20,17,30,3.20
2009,01,20,17,31,3.20
2009,01,20,17,32,3.20
2009,01,20,17,33,3.10
2009,01,20,17,34,3.10
2009,01,20,17,35,3.10
2009,01,20,17,36,3.10
2009,01,20,17,37,3.10
2009,01,20,17,38,3.00
2009,01,20,17,39,2.90
2009,01,20,17,40,2.90
2009,01,20,17,41,2.90
2009,01,20,17,42,2.90
2009,01,20,17,43,2.90
2009,01,20,17,44,2.80
2009,01,20,17,45,2.80
2009,01,20,17,46,2.80
2009,01,20,17,47,2.80
2009,01,20,17,48,2.80
2009,01,20,17,49,2.70
2009,01,20,17,50,2.70
2009,01,20,17,51,2.70
2009,01,20,17,52,2.70
2009,01,20,17,53,2.70
2009,01,20,17,54,2.70
2009,01,20,17,55,2.70
2009,01,20,17,56,2.70
2009,01,20,17,57,2.70
2009,01,20,17,58,2.70
2009,01,20,17,59,2.70
2009,01,20,18,00,2.60
2009,01,20,18,01,2.60
2009,01,20,18,02,2.60
2009,01,20,18,03,2.50
2009,01,20,18,04,2.50
2009,01,20,18,05,2.50
2009,01,20,18,06,2.50
2009,01,20,18,07,2.40
2009,01,20,18,08,2.40
2009,01,20,18,09,2.40
2009,01,20,18,10,2.30
2009,01,20,18,11,2.30
2009,01,20,18,12,2.30
2009,01,20,18,13,2.20
2009,01,20,18,14,2.20
2009,01,20,18,15,2.20
2009,01,20,18,16,2.20
2009,01,20,18,17,2.20
2009,01,20,18,18,2.20
2009,01,20,18,19,2.20
2009,01,20,18,20,2.20
2009,01,20,18,21,2.20
2009,01,20,18,22,2.10
2009,01,20,18,23,2.10
2009,01,20,18,24,2.10
2009,01,20,18,25,2.10
2009,01,20,18,26,2.10
2009,01,20,18,27,2.10
2009,01,20,18,28,2.00
2009,01,20,18,29,2.00
2009,01,20,18,30,2.00
2009,01,20,18,31,2.00
2009,01,20,18,32,2.00
2009,01,20,18,33,2.00
2009,01,20,18,34,2.00
2009,01,20,18,35,1.90
2009,01,20,18,36,1.90
2009,01,20,18,37,1.90
2009,01,20,18,38,1.80
2009,01,20,18,39,1.80
2009,01,20,18,40,1.80
2009,01,20,18,41,1.80
2009,01,20,18,42,1.80
2009,01,20,18,43,1.80
2009,01,20,18,44,1.80
2009,01,20,18,45,1.80
2009,01,20,18,46,1.80
2009,01,20,18,47,1.70
2009,01,20,18,48,1.70
2009,01,20,18,49,1.70
2009,01,20,18,50,1.70
2009,01,20,18,51,1.70
2009,01,20,18,52,1.60
2009,01,20,18,53,1.60
2009,01,20,18,54,1.60
2009,01,20,18,55,1.60
2009,01,20,18,56,1.50
2009,01,20,18,57,1.50
2009,01,20,18,58,1.50
2009,01,20,18,59,1.50
2009,01,20,19,00,1.50
2009,01,20,19,01,1.50
2009,01,20,19,02,1.50
2009,01,20,19,03,1.50
2009,01,20,19,04,1.50
2009,01,20,19,05,1.50
2009,01,20,19,06,1.50
2009,01,20,19,07,1.50
2009,01,20,19,08,1.50
2009,01,20,19,09,1.50
2009,01,20,19,10,1.50
2009,01,20,19,11,1.50
2009,01,20,19,12,1.50
2009,01,20,19,13,1.50
2009,01,20,19,14,1.50
2009,01,20,19,15,1.50
2009,01,20,19,16,1.50
2009,01,20,19,17,1.50
2009,01,20,19,18,1.50
2009,01,20,19,19,1.50
2009,01,20,19,20,1.60
2009,01,20,19,21,1.50
2009,01,20,19,22,1.50
2009,01,20,19,23,1.50
2009,01,20,19,24,1.50
2009,01,20,19,25,1.50
2009,01,20,19,26,1.50
2009,01,20,19,27,1.50
2009,01,20,19,28,1.50
2009,01,20,19,29,1.60
2009,01,20,19,30,1.60
2009,01,20,19,31,1.60
2009,01,20,19,32,1.60
2009,01,20,19,33,1.60
2009,01,20,19,34,1.70
2009,01,20,19,35,1.70
2009,01,20,19,36,1.70
2009,01,20,19,37,1.70
2009,01,20,19,38,1.70
2009,01,20,19,39,1.70
2009,01,20,19,40,1.70
2009,01,20,19,41,1.70
2009,01,20,19,42,1.70
2009,01,20,19,43,1.70
2009,01,20,19,44,1.60
2009,01,20,19,45,1.60
2009,01,20,19,46,1.60
2009,01,20,19,47,1.50
2009,01,20,19,48,1.50
2009,01,20,19,49,1.50
2009,01,20,19,50,1.50